Location: White Mills Observatory
(37.5374°N, 86.0303°W)
Time: 11:17:25
(UTC-04:00)

Amateur Radio Satellites - All Passes

Search period start: 25 October 2014 10:47
Search period end: 26 October 2014 10:47
Location: White Mills Observatory, 37.5374°N, 86.0303°W

Satellite Date Start Highest point End Downlink Frequencies (MHz)
Time Altitude Azimuth
PANSAT 25 Oct 11:03:32 11:06:12 18° 189° (S) 11:08:51 not established
RS-15 25 Oct 11:06:33 11:12:47 17° 261° (W) 11:19:11 29.354 - 29.394 USB, Beacon 29.352 USB
KITSAT 1 25 Oct 11:07:05 11:08:09 10° 98° (E) 11:09:13 435.175 FM
ZACube-1 25 Oct 11:07:21 11:10:09 17° 93° (E) 11:12:54 437.345 MHz
UKube-1 25 Oct 11:10:31 11:14:48 51° 100° (E) 11:19:02 145.840 MHz, 145.915 MHz
HO-68 25 Oct 11:18:12 11:25:20 67° 289° (WNW) 11:32:26 435.675 MHz FM
FUNcube-1 25 Oct 11:50:53 11:55:04 56° 100° (E) 11:59:08 145.950 - 145.970 MHz USB
Oscar 11 25 Oct 11:51:41 11:55:53 54° 286° (WNW) 12:00:04 145.825 FM, Beacon 2401.500 USB
ISS 25 Oct 12:20:47 12:23:06 18° 130° (SE) 12:25:26 145.800 FM
Sapphire 25 Oct 12:32:25 12:34:55 13° 44° (NE) 12:37:25 437.095 MHz 1200 baud AX-25 AFSK
Oscar 10/S400 25 Oct 12:36:30 12:57:39 28° 152° (SSE) 13:12:52 145.825 - 145.975 CW/USB, Beacon 145.810 USB
ZACube-1 25 Oct 12:42:49 12:46:39 34° 289° (WNW) 12:50:24 437.345 MHz
UKube-1 25 Oct 12:48:22 12:50:31 14° 296° (WNW) 12:52:39 145.840 MHz, 145.915 MHz
SO-50 25 Oct 12:53:30 12:57:09 25° 111° (ESE) 13:00:53 436.795 FM
PCSat 25 Oct 12:53:50 12:57:51 21° 49° (NE) 13:01:50 145.825 MHz
KITSAT 1 25 Oct 12:54:05 13:02:04 70° 114° (ESE) 13:10:06 435.175 FM
HO-68 25 Oct 13:09:23 13:11:42 12° 308° (NW) 13:14:01 435.675 MHz FM
Oscar 16 25 Oct 13:19:48 13:23:16 19° 65° (ENE) 13:26:44 437.025 USB, Beacon 2401.1428
FUNcube-1 25 Oct 13:29:36 13:30:54 11° 296° (WNW) 13:32:11 145.950 - 145.970 MHz USB
Uribyol 2 25 Oct 13:41:58 13:44:09 13° 61° (ENE) 13:46:19 436.500 FM
ITAMSAT 1 25 Oct 13:47:49 13:50:18 14° 62° (ENE) 13:52:47 435.822 SSB
ISS 25 Oct 13:56:23 13:59:34 41° 325° (NW) 14:02:45 145.800 FM
Oscar 19 25 Oct 14:11:15 14:16:17 56° 73° (ENE) 14:21:19 437.125 CW, 437.150 USB
Gurwin Techsat 1B 25 Oct 14:12:01 14:13:52 12° 61° (ENE) 14:15:44 435.225 FM
Sapphire 25 Oct 14:13:43 14:19:11 83° 63° (ENE) 14:24:36 437.095 MHz 1200 baud AX-25 AFSK
UOSAT-12 25 Oct 14:14:59 14:17:41 16° 108° (ESE) 14:20:25 437.025 FM, 437.400 FM
TMSAT-1 25 Oct 14:23:26 14:24:44 11° 60° (ENE) 14:26:02 436.925 FM
JAS-1B 25 Oct 14:29:03 14:35:02 69° 74° (ENE) 14:40:40 435.800 - 435.900 CW/SSB
AO-27 25 Oct 14:30:58 14:35:40 36° 69° (ENE) 14:40:24 436.795 MHz FM
SO-50 25 Oct 14:33:30 14:37:32 32° 308° (NW) 14:41:42 436.795 FM
PCSat 25 Oct 14:36:19 14:41:38 58° 247° (WSW) 14:46:54 145.825 MHz
AO-Echo 25 Oct 14:47:03 14:51:50 63° 74° (ENE) 14:56:50 ?
KITSAT 1 25 Oct 14:51:23 14:58:06 28° 314° (NW) 15:04:52 435.175 FM
Oscar 16 25 Oct 14:57:12 15:02:12 50° 260° (W) 15:07:13 437.025 USB, Beacon 2401.1428
Uribyol 2 25 Oct 15:17:42 15:22:54 78° 257° (WSW) 15:28:10 436.500 FM
ITAMSAT 1 25 Oct 15:23:56 15:29:08 72° 258° (WSW) 15:34:22 435.822 SSB
ISS 25 Oct 15:36:09 15:36:58 11° 344° (NNW) 15:37:48 145.800 FM
Gurwin Techsat 1B 25 Oct 15:47:46 15:53:04 84° 257° (WSW) 15:58:25 435.225 FM
UOSAT-12 25 Oct 15:52:50 15:57:21 53° 304° (NW) 16:01:58 437.025 FM, 437.400 FM
Oscar 19 25 Oct 15:52:58 15:55:56 15° 268° (W) 15:58:54 437.125 CW, 437.150 USB
TMSAT-1 25 Oct 15:58:32 16:03:50 90° 229° (SW) 16:09:10 436.925 FM
Sapphire 25 Oct 16:00:20 16:01:48 11° 258° (WSW) 16:03:17 437.095 MHz 1200 baud AX-25 AFSK
AO-27 25 Oct 16:10:58 16:15:12 25° 265° (W) 16:19:29 436.795 MHz FM
AO-7 25 Oct 16:17:22 16:25:03 45° 64° (ENE) 16:32:45 29.400 - 29.500 MHz
JAS-1B 25 Oct 16:23:44 16:26:12 13° 268° (W) 16:28:38 435.800 - 435.900 CW/SSB
AO-Echo 25 Oct 16:28:58 16:31:04 13° 270° (W) 16:33:11 ?
Uosat F 25 Oct 16:33:20 16:37:32 28° 68° (ENE) 16:41:46 435.120 FM
JAS-2 25 Oct 17:08:45 17:12:53 19° 59° (ENE) 17:17:20 435.800 - 435.900 CW/SSB, 435.910 FM
Saudisat 1A 25 Oct 17:18:20 17:22:45 66° 58° (ENE) 17:27:08 436.775 MHz
AO-40 25 Oct 17:32:06 23:59:07 45° 184° (S) 05:58:38 Beacon 2401.320
AO-7 25 Oct 18:10:17 18:17:49 39° 261° (W) 18:25:25 29.400 - 29.500 MHz
Uosat F 25 Oct 18:11:47 18:16:11 31° 263° (W) 18:20:38 435.120 FM
OPAL 25 Oct 18:19:21 18:23:31 27° 98° (E) 18:27:40 ?
Hamsat 25 Oct 18:50:16 18:54:29 88° 258° (WSW) 18:58:42 145.90 MHz
ISS 25 Oct 18:50:37 18:52:52 17° 25° (NNE) 18:55:06 145.800 FM
JAS-2 25 Oct 18:51:19 18:57:07 66° 259° (W) 19:03:45 435.800 - 435.900 CW/SSB, 435.910 FM
Saudisat 1A 25 Oct 19:00:29 19:01:44 11° 253° (WSW) 19:02:58 436.775 MHz
SO-67 25 Oct 19:29:40 19:32:33 25° 72° (ENE) 19:35:26 435.3500 MHz FM
OPAL 25 Oct 19:58:02 20:02:22 31° 293° (WNW) 20:06:40 ?
HO-68 25 Oct 20:01:18 20:04:32 14° 54° (NE) 20:07:46 435.675 MHz FM
STRAND 1 25 Oct 20:04:42 20:09:29 38° 98° (E) 20:14:14 ?
ISS 25 Oct 20:26:33 20:29:53 75° 221° (SW) 20:33:12 145.800 FM
KITSAT 1 25 Oct 20:50:02 20:56:34 26° 44° (NE) 21:03:03 435.175 FM
SO-67 25 Oct 21:03:33 21:05:31 15° 267° (W) 21:07:30 435.3500 MHz FM
RS-15 25 Oct 21:05:27 21:11:41 17° 99° (E) 21:17:50 29.354 - 29.394 USB, Beacon 29.352 USB
SO-50 25 Oct 21:26:45 21:30:03 18° 46° (NE) 21:33:23 436.795 FM
HO-68 25 Oct 21:43:55 21:51:03 76° 72° (ENE) 21:58:14 435.675 MHz FM
STRAND 1 25 Oct 21:44:23 21:48:26 24° 294° (WNW) 21:52:28 ?
ZACube-1 25 Oct 22:02:51 22:05:02 13° 65° (ENE) 22:07:11 437.345 MHz
UKube-1 25 Oct 22:04:09 22:08:05 35° 71° (ENE) 22:12:03 145.840 MHz, 145.915 MHz
Oscar 11 25 Oct 22:44:21 22:48:41 90° 116° (ESE) 22:53:01 145.825 FM, Beacon 2401.500 USB
KITSAT 1 25 Oct 22:44:41 22:52:46 77° 245° (WSW) 23:00:47 435.175 FM
FUNcube-1 25 Oct 22:45:00 22:49:12 37° 72° (ENE) 22:53:22 145.950 - 145.970 MHz USB
UOSAT-12 25 Oct 22:46:35 22:47:57 11° 40° (NE) 22:49:19 437.025 FM, 437.400 FM
SO-50 25 Oct 23:06:13 23:11:01 62° 243° (WSW) 23:15:50 436.795 FM
RS-15 25 Oct 23:11:14 23:22:17 84° 118° (ESE) 23:33:14 29.354 - 29.394 USB, Beacon 29.352 USB
HO-68 25 Oct 23:34:53 23:39:22 18° 268° (W) 23:43:53 435.675 MHz FM
ZACube-1 25 Oct 23:36:24 23:40:56 57° 260° (W) 23:45:24 437.345 MHz
UKube-1 25 Oct 23:41:20 23:44:20 18° 266° (W) 23:47:22 145.840 MHz, 145.915 MHz
MaSat-1 26 Oct 00:12:00 00:16:08 59° 112° (ESE) 00:19:53 437.345 MHz
FUNcube-1 26 Oct 00:22:26 00:25:39 19° 266° (W) 00:28:51 145.950 - 145.970 MHz USB
UOSAT-12 26 Oct 00:24:11 00:28:55 76° 58° (ENE) 00:33:32 437.025 FM, 437.400 FM
KITSAT 1 26 Oct 00:43:57 00:46:48 12° 261° (W) 00:49:39 435.175 FM
RS-15 26 Oct 01:26:47 01:35:58 30° 322° (NW) 01:45:14 29.354 - 29.394 USB, Beacon 29.352 USB
Oscar 10/S400 26 Oct 01:32:50 02:40:10 27° 239° (WSW) 05:56:12 145.825 - 145.975 CW/USB, Beacon 145.810 USB
MaSat-1 26 Oct 01:50:45 01:51:55 11° 305° (NW) 01:53:04 437.345 MHz
UOSAT-12 26 Oct 02:07:45 02:08:21 10° 254° (WSW) 02:08:57 437.025 FM, 437.400 FM
JAS-1B 26 Oct 02:13:54 02:19:21 23° 96° (E) 02:25:29 435.800 - 435.900 CW/SSB
Oscar 19 26 Oct 02:25:32 02:29:33 23° 95° (E) 02:33:33 437.125 CW, 437.150 USB
AO-27 26 Oct 02:47:20 02:50:10 15° 92° (E) 02:52:59 436.795 MHz FM
AO-Echo 26 Oct 02:56:39 03:01:01 25° 95° (E) 03:05:21 ?
Oscar 16 26 Oct 03:10:42 03:15:48 67° 102° (ESE) 03:20:53 437.025 USB, Beacon 2401.1428
Sapphire 26 Oct 03:13:27 03:16:01 14° 103° (ESE) 03:18:35 437.095 MHz 1200 baud AX-25 AFSK
Uribyol 2 26 Oct 03:32:39 03:37:37 44° 99° (E) 03:42:33 436.500 FM
PCSat 26 Oct 03:33:53 03:38:09 24° 107° (ESE) 03:42:26 145.825 MHz
ITAMSAT 1 26 Oct 03:38:57 03:44:00 48° 100° (E) 03:49:00 435.822 SSB
RS-15 26 Oct 03:48:08 03:53:42 15° 358° (N) 03:59:19 29.354 - 29.394 USB, Beacon 29.352 USB
JAS-1B 26 Oct 04:03:22 04:10:05 63° 287° (WNW) 04:18:07 435.800 - 435.900 CW/SSB
Oscar 19 26 Oct 04:04:16 04:08:58 37° 290° (WNW) 04:13:38 437.125 CW, 437.150 USB
Gurwin Techsat 1B 26 Oct 04:06:09 04:11:15 46° 99° (E) 04:16:19 435.225 FM
TMSAT-1 26 Oct 04:16:36 04:21:38 42° 99° (E) 04:26:37 436.925 FM
AO-7 26 Oct 04:23:37 04:27:28 14° 90° (E) 04:31:19 29.400 - 29.500 MHz
AO-27 26 Oct 04:24:53 04:30:03 60° 287° (WNW) 04:35:09 436.795 MHz FM
AO-Echo 26 Oct 04:34:57 04:39:48 37° 290° (WNW) 04:44:37 ?
Oscar 16 26 Oct 04:52:00 04:54:33 14° 298° (WNW) 04:57:06 437.025 USB, Beacon 2401.1428
Sapphire 26 Oct 04:53:22 04:58:45 71° 299° (WNW) 05:04:11 437.095 MHz 1200 baud AX-25 AFSK
Uribyol 2 26 Oct 05:12:55 05:16:45 21° 295° (WNW) 05:20:34 436.500 FM
PCSat 26 Oct 05:16:10 05:21:16 42° 303° (WNW) 05:26:25 145.825 MHz
ITAMSAT 1 26 Oct 05:19:25 05:23:06 20° 295° (WNW) 05:26:47 435.822 SSB
OPAL 26 Oct 05:32:06 05:36:54 41° 69° (ENE) 05:41:39 ?
Gurwin Techsat 1B 26 Oct 05:46:58 05:50:51 21° 295° (WNW) 05:54:44 435.225 FM
TMSAT-1 26 Oct 05:57:12 06:01:14 23° 294° (WNW) 06:05:16 436.925 FM
JAS-2 26 Oct 06:02:49 06:08:59 25° 92° (E) 06:15:01 435.800 - 435.900 CW/SSB, 435.910 FM
RS-15 26 Oct 06:02:58 06:11:51 26° 34° (NE) 06:20:56 29.354 - 29.394 USB, Beacon 29.352 USB
AO-7 26 Oct 06:12:55 06:21:18 82° 107° (ESE) 06:29:39 29.400 - 29.500 MHz
Uosat F 26 Oct 06:20:40 06:25:45 86° 284° (WNW) 06:30:47 435.120 FM
Hamsat 26 Oct 06:38:43 06:41:40 18° 94° (E) 06:44:36 145.90 MHz
Sapphire 26 Oct 06:41:30 06:43:10 11° 318° (NW) 06:44:51 437.095 MHz 1200 baud AX-25 AFSK
OPAL 26 Oct 07:11:57 07:15:52 22° 263° (W) 07:19:46 ?
STRAND 1 26 Oct 07:18:40 07:23:31 45° 71° (ENE) 07:28:25 ?
PANSAT 26 Oct 07:19:50 07:21:33 13° 164° (SSE) 07:23:16 not established
Saudisat 1A 26 Oct 07:23:26 07:27:05 26° 112° (ESE) 07:30:45 436.775 MHz
JAS-2 26 Oct 07:46:38 07:54:23 66° 288° (WNW) 08:02:01 435.800 - 435.900 CW/SSB, 435.910 FM
AO-7 26 Oct 08:07:15 08:13:08 22° 305° (NW) 08:19:01 29.400 - 29.500 MHz
Hamsat 26 Oct 08:13:55 08:17:39 32° 288° (WNW) 08:21:24 145.90 MHz
RS-15 26 Oct 08:14:53 08:26:09 82° 59° (ENE) 08:37:55 29.354 - 29.394 USB, Beacon 29.352 USB
SO-67 26 Oct 08:27:04 08:30:19 39° 98° (E) 08:33:33 435.3500 MHz FM
PANSAT 26 Oct 08:58:11 09:01:05 20° 176° (S) 09:03:58 not established
STRAND 1 26 Oct 08:59:17 09:02:54 19° 266° (W) 09:06:32 ?
Saudisat 1A 26 Oct 09:02:42 09:06:32 29° 309° (NW) 09:10:24 436.775 MHz
HO-68 26 Oct 09:16:17 09:20:01 15° 91° (E) 09:23:44 435.675 MHz FM
JAS-2 26 Oct 09:34:47 09:37:57 13° 305° (NW) 09:41:09 435.800 - 435.900 CW/SSB, 435.910 FM
MaSat-1 26 Oct 09:59:50 10:02:20 57° 64° (ENE) 10:04:41 437.345 MHz
SO-67 26 Oct 10:02:25 10:02:53 10° 293° (WNW) 10:03:22 435.3500 MHz FM
RS-15 26 Oct 10:28:59 10:37:17 25° 258° (WSW) 10:45:53 29.354 - 29.394 USB, Beacon 29.352 USB
Oscar 11 26 Oct 10:34:52 10:37:55 19° 94° (E) 10:40:56 145.825 FM, Beacon 2401.500 USB
PANSAT 26 Oct 10:38:02 10:40:40 18° 189° (S) 10:43:17 not established
